TOURFACTS.DK  
Stats and Facts from Tour de France.

Tour de France 2019 starts in 348 days
  Riders   Stages   Teams   Summits   Yearly  


 
Search by year

After 2018 - Stage 14:
 15000 starters.
  5163 different riders.
  639 teams.
  2246 stages.
  456 restdays.
  441957.60 km.
  5678 abandonnees.


Top 3
GC
Christopher Froome86:20:55
Rigoberto Urán86:21:49
Romain Bardet86:23:15
Climb
Warren Barguil169 pt.
Primoz Roglic80 pt.
Thomas De Gendt64 pt.
Sprint
Michael Matthews359 pt.
André Greipel234 pt.
Edvald Boasson Hagen220 pt.
Youth
Simon Yates86:27:09
Louis Meintjes86:29:15
Emanuel Buchmann86:54:16
Facts from Tour de France 1994
  |   Stages.  |   Stage winners.  |   Days in yellow  |   Average speed.  |   Route.  |   Teams.  |   All riders.  |   Rookies.  |  

  |   Withdrawls.  |   GC.  |   Polka  |   Green  |   White  |   Summits. (In tour)  |   Miscellaneous.  |  

Stage 15 on July 18th. 1994
         Owning:    Miguel Indurain    
Pick a stage:  Pro 1 2 3 4 5 6 7 8 9 10 11 12 13 14 15 16 17 18 19 20 21
From: Montpellier    To: CarpentrasDist:231.00 km.
Cat: HMont VentouxITAEros Poli
40 points
 

Average speed for all riders in stage:  33,873 km./hr.
    Place:Name:Team:Time:Km/h:
ITAEros PoliITAMercatone Uno-Medeghini06:31:59  +  00:00:00=35,359 
ITAAlberto ElliITAGB-MG Maglificio06:35:38  +  00:03:39=35,032 
FRAPascal LinoESPFestina-Andorra06:35:38  +  00:03:39=35,032 
4 ITARoberto ContiITALampre-Panaria06:35:40  +  00:03:41=35,029 
5 MARRichard VirenqueESPFestina-Andorra06:35:59  +  00:04:00=35,001 
6 FRAArmand De Las CuevasFRACastorama06:35:59  +  00:04:00=35,001 
7 URSPiotr UgrumovITAGewiss-Ballan06:35:59  +  00:04:00=35,001 
8 SUIAlex ZülleESPO.N.C.E.06:35:59  +  00:04:00=35,001 
9 ESPMiguel IndurainESPBanesto06:35:59  +  00:04:00=35,001 
10 ITAMarco PantaniITACarrera Jeans-Tassoni06:35:59  +  00:04:00=35,001 
11 URSVladimir PoulnikovITACarrera Jeans-Tassoni06:35:59  +  00:04:00=35,001 
12 FRALuc LeblancESPFestina-Andorra06:35:59  +  00:04:00=35,001 
13 GERUdo BöltsDEUTelecom06:37:41  +  00:05:42=34,852 
14 ITABruno CenghialtaITAGewiss-Ballan06:37:41  +  00:05:42=34,852 
15 COLHernán BuenahoraESPKelme-Avianca06:37:41  +  00:05:42=34,852 
16 ITAGianluca BortolamiBELMapei-Clas06:39:45  +  00:07:46=34,672 
17 FRACharly MottetFRANovemail-Histor-Laser Computer06:39:45  +  00:07:46=34,672 
18 FRAÉric CaritouxFRAChazal-MBK-Konig06:39:45  +  00:07:46=34,672 
19 DENBo HamburgerNLDTVM-Bison06:39:45  +  00:07:46=34,672 
20 FRAPascal HerveESPFestina-Andorra06:39:45  +  00:07:46=34,672 
21 ESPAbraham OlanoBELMapei-Clas06:39:45  +  00:07:46=34,672 
22 ITAFranco ChioccioliITAMercatone Uno-Medeghini06:39:45  +  00:07:46=34,672 
23 ITAOscar PelliccioliITAPolti-Vaporetto06:39:45  +  00:07:46=34,672 
24 COLFederico FernandezESPKelme-Avianca06:39:45  +  00:07:46=34,672 
25 SUILaurent DufauxESPO.N.C.E.06:39:45  +  00:07:46=34,672 
26 DENRolf SørensenITAGB-MG Maglificio06:39:45  +  00:07:46=34,672 
27 ESPRamon GonzalezESPBanesto06:39:45  +  00:07:46=34,672 
28 FRAThomas DavyFRACastorama06:39:45  +  00:07:46=34,672 
29 FRAJean-François BernardESPBanesto06:39:45  +  00:07:46=34,672 
30 ESPFernando EscartinBELMapei-Clas06:39:45  +  00:07:46=34,672 
31 URSViatcheslav EkimovBELWordperfect06:41:58  +  00:09:59=34,480 
32 DDRGerd AudehmDEUTelecom06:41:58  +  00:09:59=34,480 
33 NORDag Otto LauritzenNLDTVM-Bison06:41:58  +  00:09:59=34,480 
34 FRAChristophe ManinFRAChazal-MBK-Konig06:41:58  +  00:09:59=34,480 
35 GERRolf AldagDEUTelecom06:41:58  +  00:09:59=34,480 
36 MEXMiguel ArroyoFRAChazal-MBK-Konig06:41:58  +  00:09:59=34,480 
37 BELJim Van De LaerBELLotto-Veta-Caloi06:41:58  +  00:09:59=34,480 
38 COLAlvaro MejiaUSAMotorola06:41:58  +  00:09:59=34,480 
39 ESPFederico EchaveBELMapei-Clas06:41:58  +  00:09:59=34,480 
40 COLNelson RodriguezITAZG Mobili-Selle Italia06:41:58  +  00:09:59=34,480 
41 SUIBeat ZbergITACarrera Jeans-Tassoni06:41:58  +  00:09:59=34,480 
42 ESPArsenio GonzálezBELMapei-Clas06:45:31  +  00:13:32=34,179 
43 FRAFrançois SimonFRACastorama06:45:31  +  00:13:32=34,179 
44 ITAEnrico ZainaITAGewiss-Ballan06:47:57  +  00:15:58=33,975 
45 ITAMauro-Antonio SantaromitaITAZG Mobili-Selle Italia06:47:57  +  00:15:58=33,975 
46 ITAFlavio VanzellaITAGB-MG Maglificio06:47:57  +  00:15:58=33,975 
47 ITADavide PeronaITAZG Mobili-Selle Italia06:47:57  +  00:15:58=33,975 
48 DENBjarne RiisITAGewiss-Ballan06:47:57  +  00:15:58=33,975 
49 ITAMario MantovanITACarrera Jeans-Tassoni06:47:57  +  00:15:58=33,975 
50 FRAPhilippe LouviotFRANovemail-Histor-Laser Computer06:50:04  +  00:18:05=33,799 
51 URSArturas KasputisFRAChazal-MBK-Konig06:50:04  +  00:18:05=33,799 
52 NEDErik BreukinkESPO.N.C.E.06:50:04  +  00:18:05=33,799 
53 BELPeter De ClercqBELLotto-Veta-Caloi06:50:04  +  00:18:05=33,799 
54 URSDjamolidine AbduzhaparovITAPolti-Vaporetto06:50:04  +  00:18:05=33,799 
55 FRARoberto TorresESPFestina-Andorra06:50:04  +  00:18:05=33,799 
56 ESPAlberto LeanizbarrutiaESPO.N.C.E.06:50:04  +  00:18:05=33,799 
57 URSAndrei TchmilBELLotto-Veta-Caloi06:50:04  +  00:18:05=33,799 
58 COLOliverio RincónESPO.N.C.E.06:50:04  +  00:18:05=33,799 
59 COLJulio-César CadenaESPKelme-Avianca06:50:04  +  00:18:05=33,799 
60 FRAJean-Claude BagotESPFestina-Andorra06:50:04  +  00:18:05=33,799 
61 URSDimitri ZhdanovITAPolti-Vaporetto06:50:04  +  00:18:05=33,799 
62 AUSStephen HodgeESPFestina-Andorra06:50:04  +  00:18:05=33,799 
63 ITAFranco VonaITAGB-MG Maglificio06:50:04  +  00:18:05=33,799 
64 FRAPascal ChanteurFRAChazal-MBK-Konig06:50:04  +  00:18:05=33,799 
65 COLAngel OchoaESPKelme-Avianca06:50:04  +  00:18:05=33,799 
66 ESPLaudelino CubinoESPKelme-Avianca06:50:04  +  00:18:05=33,799 
67 FRAEddy SeigneurFRAGan06:50:04  +  00:18:05=33,799 
68 FRAThierry MarieFRACastorama06:54:59  +  00:23:00=33,399 
69 ESPRaúl AlcaláUSAMotorola06:54:59  +  00:23:00=33,399 
70 BELEric Van LanckerBELWordperfect06:54:59  +  00:23:00=33,399 
71 POLCesary ZamanaESPKelme-Avianca06:54:59  +  00:23:00=33,399 
72 GERChristian HennDEUTelecom06:54:59  +  00:23:00=33,399 
73 ESPVicente AparicioESPBanesto06:54:59  +  00:23:00=33,399 
74 BELRudy VerdonckBELLotto-Veta-Caloi06:54:59  +  00:23:00=33,399 
75 FRARonan PensecFRANovemail-Histor-Laser Computer06:54:59  +  00:23:00=33,399 
76 NEDJean-Paul van PoppelESPFestina-Andorra06:54:59  +  00:23:00=33,399 
77 NEDGerrit De VriesFRANovemail-Histor-Laser Computer06:54:59  +  00:23:00=33,399 
78 NORAtle KvålsvollBELWordperfect06:54:59  +  00:23:00=33,399 
79 NEDErik DekkerBELWordperfect06:54:59  +  00:23:00=33,399 
80 BELMario De ClercqBELLotto-Veta-Caloi06:54:59  +  00:23:00=33,399 
81 ITAMarco ZenITALampre-Panaria06:54:59  +  00:23:00=33,399 
82 ESPJosé UriarteESPBanesto06:54:59  +  00:23:00=33,399 
83 SUIRolf JärmannITAGB-MG Maglificio06:54:59  +  00:23:00=33,399 
84 ITARemo RossiITACarrera Jeans-Tassoni06:54:59  +  00:23:00=33,399 
85 NEDErwin NijboerESPBanesto06:54:59  +  00:23:00=33,399 
86 ESPMelchor MauriESPBanesto06:54:59  +  00:23:00=33,399 
87 SVKJán SvoradaITALampre-Panaria06:54:59  +  00:23:00=33,399 
88 FRAFrancis MoreauFRAGan06:54:59  +  00:23:00=33,399 
89 DENJesper SkibbyNLDTVM-Bison06:54:59  +  00:23:00=33,399 
90 URSVladislav BobrikITAGewiss-Ballan06:54:59  +  00:23:00=33,399 
91 DDRUwe RaabDEUTelecom06:54:59  +  00:23:00=33,399 
92 BELCarlo BomansITAGB-MG Maglificio06:54:59  +  00:23:00=33,399 
93 ITASilvio MartinelloITAMercatone Uno-Medeghini06:54:59  +  00:23:00=33,399 
94 ITARosario FinaITAMercatone Uno-Medeghini06:54:59  +  00:23:00=33,399 
95 BELMarc WautersBELWordperfect06:54:59  +  00:23:00=33,399 
96 DDRJens HeppnerDEUTelecom06:54:59  +  00:23:00=33,399 
97 ENGPhil AndersonUSAMotorola06:54:59  +  00:23:00=33,399 
98 BELGuy NulensFRANovemail-Histor-Laser Computer06:54:59  +  00:23:00=33,399 
99 NEDRob MuldersBELWordperfect06:54:59  +  00:23:00=33,399 
100 BELHendrik RedantITAZG Mobili-Selle Italia06:54:59  +  00:23:00=33,399 
101 FRAGérard RuéESPBanesto06:54:59  +  00:23:00=33,399 
102 DDRMario KummerDEUTelecom06:54:59  +  00:23:00=33,399 
103 ITAGiancarlo PeriniITAZG Mobili-Selle Italia06:54:59  +  00:23:00=33,399 
104 BELLuc RoosenBELLotto-Veta-Caloi06:54:59  +  00:23:00=33,399 
105 DDROlaf LudwigDEUTelecom06:54:59  +  00:23:00=33,399 
106 ESPMarino MonjeESPBanesto06:54:59  +  00:23:00=33,399 
107 ESPHerminio ZabalaESPO.N.C.E.06:54:59  +  00:23:00=33,399 
108 AUSNeil StephensESPO.N.C.E.06:54:59  +  00:23:00=33,399 
109 USAFrankie AndreuUSAMotorola06:54:59  +  00:23:00=33,399 
110 ENGSean YatesUSAMotorola06:54:59  +  00:23:00=33,399 
111 NEDJohn TalenITAMercatone Uno-Medeghini06:54:59  +  00:23:00=33,399 
112 FRAThierry GouvenouFRAGan06:54:59  +  00:23:00=33,399 
113 BELMichel VermoteESPFestina-Andorra06:54:59  +  00:23:00=33,399 
114 NZLStephen SwartUSAMotorola06:54:59  +  00:23:00=33,399 
115 ESPÁngel EdoESPKelme-Avianca06:54:59  +  00:23:00=33,399 
116 ITAGiorgio FurlanITAGewiss-Ballan06:54:59  +  00:23:00=33,399 
117 ITADavide CassaniITAGB-MG Maglificio06:54:59  +  00:23:00=33,399 
118 ITAGuido BontempiITAGewiss-Ballan06:54:59  +  00:23:00=33,399 
119 ITAMassimo GhirottoITAZG Mobili-Selle Italia06:54:59  +  00:23:00=33,399 
120 ITAMario ChiesaITACarrera Jeans-Tassoni06:54:59  +  00:23:00=33,399 
121 ITAMarco SerpelliniITALampre-Panaria06:54:59  +  00:23:00=33,399 
122 ITADario BottaroITAGewiss-Ballan06:54:59  +  00:23:00=33,399 
123 BELJohan MuseeuwITAGB-MG Maglificio06:54:59  +  00:23:00=33,399 
124 BELMarc SergeantFRANovemail-Histor-Laser Computer06:54:59  +  00:23:00=33,399 
125 SUIJörg MüllerBELMapei-Clas06:54:59  +  00:23:00=33,399 
126 ITAGiovanni FidanzaITAPolti-Vaporetto06:54:59  +  00:23:00=33,399 
127 ITAAndrea PeronITAPolti-Vaporetto06:54:59  +  00:23:00=33,399 
128 FRABruno ThiboutFRACastorama06:54:59  +  00:23:00=33,399 
129 ITAAlessio GallettiITALampre-Panaria06:54:59  +  00:23:00=33,399 
130 ESPFrancisco CabelloESPKelme-Avianca06:55:14  +  00:23:15=33,379 
131 BELMichel DerniesUSAMotorola06:55:14  +  00:23:15=33,379 
132 BELWilfried PeetersITAGB-MG Maglificio07:00:13  +  00:28:14=32,983 
133 FRALaurent DesbiensFRACastorama07:00:13  +  00:28:14=32,983 
134 FRAEmmanuel MagnienFRACastorama07:00:13  +  00:28:14=32,983 
135 URSSerguei OutschakovITAPolti-Vaporetto07:00:13  +  00:28:14=32,983 

Withdrawls: 5
 
Rider
Team
Reason
19  ESPJon UnzagaBELMapei-ClasDid not start
31  USALance ArmstrongUSAMotorolaDid not start
84  FRAJean-Claude ColottiFRAGanDid not finish
122  BELJohan CapiotNLDTVM-BisonDid not start
195  BELHerman FrisonBELLotto-Veta-CaloiDid not finish

Todays birthdays.

1877  Antoine Perrichon
1878  Auguste Berthault
1911  Théo Herckenrath
1924  Carlo Lafranchi
1931  Armand Di Caro
1937  Jean-Claude Lebaube
1951  Giovanni Battaglin
1961  Pascal Jules
1962  Jean-Claude Leclercq
1976  Janek Tombak
1978  Francisco Pérez
1983  Dries Devenyns




Visits: